Change the Weather History Date:

Wednesday, October 10, 2012

  Actual Average (KRIC) Record (KRIC)
Temperature  
Mean Temperature 62 °F 61 °F  
Max Temperature 70 °F 73 °F 92 °F (1939)
Min Temperature 54 °F 50 °F 36 °F (1974)
Degree Days  
Heating Degree Days 3 5  
Month to date heating degree days 40  
Since 1 July heating degree days 69  
Cooling Degree Days 0 2  
Month to date cooling degree days 22  
Year to date cooling degree days 1526  
Growing Degree Days 12 (Base 50)    
Moisture  
Dew Point 57 °F    
Average Humidity 87    
Maximum Humidity 100    
Minimum Humidity 57    
Precipitation  
Precipitation 0.00 in 0.09 in 2.08 in (1894)
Month to date precipitation 0.98  
Year to date precipitation 35.10  
Snow  
Snow 0.00 in 0.00 in T in (1979)
Month to date snowfall 0.0  
Since 1 July snowfall 0.0  
Snow Depth -    
Sea Level Pressure  
Sea Level Pressure 30.01 in    
Wind  
Wind Speed 4 mph (West)    
Max Wind Speed 12 mph    
Max Gust Speed 18 mph    
Visibility 8 miles    
Events      
T = Trace of Precipitation, MM = Missing Value Source: NWS Daily Summary

Daily Weather History Graph

Daily Weather History Graph

Search for Another Location

Airport or City:

Trip Planner

Search our weather history database for the weather conditions in past years. The results will help you decide how hot, cold, wet, or windy it might be!

Date:

Astronomy

Oct. 10, 2012 Rise Set
Actual Time 7:11 AM EDT 6:36 PM EDT
Civil Twilight 6:44 AM EDT 7:02 PM EDT
Nautical Twilight 6:14 AM EDT 7:32 PM EDT
Astronomical Twilight 5:44 AM EDT 8:02 PM EDT
Moon 1:51 AM EDT (10/10) 3:32 PM EDT (10/10)
Length of Visible Light 12h 17m
Length of Day
11h 25m
Waning Crescent, 27% of the Moon is Illuminated
Oct 10
Waning Crescent
Oct 15
New
Oct 21
First Quarter
Oct 29
Full
Nov 6
Last Quarter

Hourly Weather History & Observations

Time (EDT) Temp. Dew Point Humidity Pressure Visibility Wind Dir Wind Speed Gust Speed Precip Events Conditions
12:15 AM 57.9 °F 57.9 °F 100% 30.07 in 7.0 mi NW 3.5 mph - N/A   Overcast
12:35 AM 57.7 °F 57.7 °F 100% 30.07 in 5.0 mi Calm Calm - N/A   Overcast
12:55 AM 57.7 °F 57.7 °F 100% 30.06 in 4.0 mi Calm Calm - N/A   Overcast
1:15 AM 57.7 °F 57.7 °F 100% 30.06 in 4.0 mi NNW 3.5 mph - N/A   Overcast
1:35 AM 57.7 °F 57.7 °F 100% 30.06 in 4.0 mi Calm Calm - N/A   Overcast
1:55 AM 58.1 °F 58.1 °F 100% 30.06 in 5.0 mi Calm Calm - N/A   Overcast
2:15 AM 58.1 °F 58.1 °F 100% 30.05 in 4.0 mi Calm Calm - N/A   Overcast
2:35 AM 58.1 °F 58.1 °F 100% 30.05 in 3.0 mi Calm Calm - N/A   Overcast
2:55 AM 57.9 °F 57.9 °F 100% 30.04 in 3.0 mi Calm Calm - N/A   Overcast
3:15 AM 57.9 °F 57.9 °F 100% 30.03 in 4.0 mi WNW 3.5 mph - N/A   Overcast
3:35 AM 57.7 °F 57.7 °F 100% 30.03 in 5.0 mi Calm Calm - N/A   Overcast
3:55 AM 57.9 °F 57.9 °F 100% 30.03 in 4.0 mi NW 3.5 mph - N/A   Overcast
4:15 AM 58.1 °F 58.1 °F 100% 30.03 in 4.0 mi WNW 3.5 mph - N/A   Overcast
4:35 AM 58.1 °F 58.1 °F 100% 30.02 in 4.0 mi Calm Calm - N/A   Overcast
4:55 AM 57.7 °F 57.7 °F 100% 30.02 in 3.0 mi Calm Calm - N/A   Overcast
5:15 AM 57.7 °F 57.7 °F 100% 30.03 in 4.0 mi Calm Calm - N/A   Overcast
5:35 AM 57.9 °F 57.9 °F 100% 30.03 in 4.0 mi WNW 3.5 mph - N/A   Overcast
5:55 AM 57.7 °F 57.7 °F 100% 30.02 in 4.0 mi Calm Calm - N/A   Overcast
6:15 AM 57.9 °F 57.9 °F 100% 30.03 in 3.0 mi Calm Calm - N/A   Overcast
6:35 AM 57.9 °F 57.9 °F 100% 30.02 in 3.0 mi Calm Calm - N/A   Overcast
6:55 AM 58.1 °F 58.1 °F 100% 30.02 in 3.0 mi Calm Calm - N/A   Overcast
7:15 AM 58.1 °F 58.1 °F 100% 30.03 in 5.0 mi West 3.5 mph - N/A   Overcast
7:35 AM 58.1 °F 58.1 °F 100% 30.04 in 5.0 mi West 5.8 mph - N/A   Overcast
7:55 AM 57.7 °F 57.7 °F 100% 30.04 in 5.0 mi WSW 6.9 mph - N/A   Overcast
8:15 AM 57.7 °F 57.7 °F 100% 30.04 in 5.0 mi WSW 4.6 mph - N/A   Overcast
8:35 AM 58.1 °F 58.1 °F 100% 30.04 in 10.0 mi WSW 4.6 mph - N/A   Overcast
8:55 AM 58.3 °F 58.3 °F 100% 30.05 in 10.0 mi WSW 5.8 mph - N/A   Overcast
9:15 AM 59.0 °F 59.0 °F 100% 30.05 in 10.0 mi WSW 5.8 mph - N/A   Mostly Cloudy
9:35 AM 60.6 °F 60.3 °F 99% 30.04 in 10.0 mi WSW 8.1 mph - N/A   Mostly Cloudy
9:55 AM 61.9 °F 59.2 °F 91% 30.04 in 10.0 mi West 8.1 mph - N/A   Mostly Cloudy
10:15 AM 61.9 °F 58.5 °F 89% 30.03 in 10.0 mi WSW 6.9 mph - N/A   Mostly Cloudy
10:35 AM 63.0 °F 58.8 °F 86% 30.03 in 10.0 mi WSW 8.1 mph - N/A   Mostly Cloudy
11:15 AM 62.6 °F 56.3 °F 80% 30.02 in 10.0 mi WSW 9.2 mph - N/A   Scattered Clouds
11:35 AM 64.2 °F 56.5 °F 76% 30.02 in 10.0 mi WSW 10.4 mph - N/A   Scattered Clouds
11:55 AM 65.1 °F 56.8 °F 75% 30.01 in 10.0 mi West 8.1 mph - N/A   Mostly Cloudy
12:15 PM 64.4 °F 56.5 °F 75% 30.00 in 10.0 mi West 10.4 mph - N/A   Mostly Cloudy
12:35 PM 65.8 °F 56.5 °F 72% 30.00 in 10.0 mi WSW 11.5 mph - N/A   Scattered Clouds
1:15 PM 67.6 °F 56.5 °F 67% 29.98 in 10.0 mi SW 10.4 mph - N/A   Mostly Cloudy
1:35 PM 67.1 °F 56.5 °F 69% 29.97 in 10.0 mi West 11.5 mph 18.4 mph N/A   Unknown
1:55 PM 68.4 °F 55.9 °F 64% 29.96 in 10.0 mi SW 6.9 mph - N/A   Scattered Clouds
2:15 PM 69.4 °F 56.7 °F 64% 29.95 in 10.0 mi West 10.4 mph - N/A   Clear
2:35 PM 69.1 °F 55.9 °F 63% 29.94 in 10.0 mi WSW 6.9 mph - N/A   Clear
2:55 PM 69.8 °F 55.2 °F 60% 29.93 in 10.0 mi West 8.1 mph - N/A   Clear
3:15 PM 69.6 °F 55.6 °F 61% 29.93 in 10.0 mi WSW 10.4 mph - N/A   Scattered Clouds
3:35 PM 70.0 °F 56.3 °F 62% 29.93 in 10.0 mi WSW 6.9 mph - N/A   Scattered Clouds
3:55 PM 69.6 °F 55.9 °F 62% 29.92 in 10.0 mi WSW 8.1 mph - N/A   Scattered Clouds
4:15 PM 70.2 °F 55.4 °F 59% 29.92 in 10.0 mi West 11.5 mph 16.1 mph N/A   Scattered Clouds
4:35 PM 70.2 °F 54.3 °F 57% 29.93 in 10.0 mi WSW 11.5 mph - N/A   Mostly Cloudy
4:55 PM 69.8 °F 54.0 °F 57% 29.93 in 10.0 mi West 8.1 mph - N/A   Scattered Clouds
5:15 PM 69.8 °F 54.3 °F 58% 29.93 in 10.0 mi WSW 10.4 mph - N/A   Scattered Clouds
5:35 PM 68.9 °F 54.1 °F 59% 29.93 in 10.0 mi WSW 6.9 mph - N/A   Clear
5:55 PM 68.0 °F 54.3 °F 62% 29.94 in 10.0 mi SW 5.8 mph - N/A   Clear
6:35 PM 65.3 °F 55.8 °F 71% 29.94 in 10.0 mi SW 4.6 mph - N/A   Clear
7:15 PM 58.1 °F 56.7 °F 95% 29.96 in 10.0 mi Calm Calm - N/A   Clear
7:35 PM 57.0 °F 56.7 °F 99% 29.96 in 10.0 mi ENE 3.5 mph - N/A   Clear
7:55 PM 57.4 °F 57.2 °F 99% 29.97 in 10.0 mi Calm Calm - N/A   Clear
8:15 PM 54.7 °F 54.7 °F 100% 29.97 in 10.0 mi Calm Calm - N/A   Clear
8:35 PM 55.6 °F 55.6 °F 100% 29.98 in 10.0 mi Calm Calm - N/A   Clear
9:15 PM 55.8 °F 55.8 °F 100% 29.99 in 10.0 mi Calm Calm - N/A   Clear
9:55 PM 55.6 °F 55.6 °F 100% 30.02 in 10.0 mi WSW 3.5 mph - N/A   Clear
10:15 PM 57.7 °F 55.4 °F 92% 30.03 in 10.0 mi West 4.6 mph - N/A   Clear
10:35 PM 57.2 °F 55.2 °F 93% 30.03 in 10.0 mi West 5.8 mph - N/A   Clear
11:15 PM 58.5 °F 55.4 °F 90% 30.07 in 10.0 mi NW 4.6 mph - N/A   Scattered Clouds
11:35 PM 58.3 °F 54.5 °F 87% 30.08 in 10.0 mi NNW 5.8 mph - N/A   Scattered Clouds
11:55 PM 58.3 °F 51.8 °F 79% 30.08 in 10.0 mi NNW 4.6 mph - N/A   Scattered Clouds